Hourly Weather Lukla

Today, 7 May, Friday

Time Temperature Precipitation Wind Pressure Humidity
00:00 +9°C° 0 mm 2 mps 559 mmHg 73%
01:00 +8°C° 0 mm 2 mps 559 mmHg 72%
02:00 +8°C° 0 mm 2 mps 558 mmHg 72%
03:00 +8°C° 0 mm 2 mps 558 mmHg 71%
04:00 +8°C° 0 mm 2 mps 558 mmHg 70%
05:00 +8°C° 0 mm 2 mps 558 mmHg 70%
06:00 +8°C° 0 mm 2 mps 558 mmHg 69%
07:00 +10°C° 0 mm 2 mps 560 mmHg 65%
08:00 +13°C° 0 mm 2 mps 561 mmHg 60%
09:00 +14°C° 0 mm 2 mps 562 mmHg 56%
10:00 +15°C° 0.4 mm 2 mps 562 mmHg 54%
11:00 +16°C° 0.4 mm 2 mps 562 mmHg 52%
12:00 +17°C° 0.4 mm 3 mps 563 mmHg 50%
13:00 +17°C° 0.5 mm 2 mps 562 mmHg 51%
14:00 +17°C° 0.5 mm 2 mps 561 mmHg 53%
15:00 +16°C° 0.5 mm 2 mps 561 mmHg 54%
16:00 +16°C° 0.4 mm 2 mps 560 mmHg 59%
17:00 +15°C° 0.4 mm 2 mps 559 mmHg 63%
18:00 +14°C° 0.4 mm 1 mps 559 mmHg 67%
19:00 +13°C° 0 mm 1 mps 559 mmHg 68%
20:00 +12°C° 0 mm 2 mps 559 mmHg 70%
21:00 +10°C° 0 mm 2 mps 559 mmHg 71%
22:00 +10°C° 0.1 mm 2 mps 559 mmHg 71%
23:00 +10°C° 0.1 mm 2 mps 559 mmHg 70%

Tomorrow, 8 May, Saturday

Time Temperature Precipitation Wind Pressure Humidity
00:00 +9°C° 0.1 mm 2 mps 559 mmHg 69%
01:00 +9°C° 0.1 mm 2 mps 558 mmHg 68%
02:00 +9°C° 0.1 mm 2 mps 558 mmHg 68%
03:00 +9°C° 0.1 mm 2 mps 558 mmHg 67%
04:00 +9°C° 0.2 mm 2 mps 558 mmHg 67%
05:00 +8°C° 0.2 mm 2 mps 558 mmHg 67%
06:00 +8°C° 0.2 mm 2 mps 558 mmHg 67%
07:00 +10°C° 0 mm 2 mps 559 mmHg 63%
08:00 +13°C° 0 mm 2 mps 560 mmHg 59%
09:00 +15°C° 0 mm 2 mps 562 mmHg 54%
10:00 +16°C° 0.2 mm 2 mps 562 mmHg 54%
11:00 +16°C° 0.2 mm 2 mps 562 mmHg 53%
12:00 +17°C° 0.2 mm 3 mps 562 mmHg 52%
13:00 +17°C° 0.6 mm 3 mps 561 mmHg 54%
14:00 +17°C° 0.6 mm 2 mps 560 mmHg 55%
15:00 +16°C° 0.6 mm 2 mps 560 mmHg 56%
16:00 +15°C° 1.5 mm 2 mps 559 mmHg 63%
17:00 +14°C° 1.5 mm 2 mps 559 mmHg 69%
18:00 +13°C° 1.5 mm 2 mps 558 mmHg 76%
19:00 +12°C° 1.5 mm 2 mps 558 mmHg 75%
20:00 +12°C° 1.5 mm 2 mps 558 mmHg 75%
21:00 +10°C° 1.5 mm 2 mps 558 mmHg 75%
22:00 +10°C° 0 mm 2 mps 558 mmHg 73%
23:00 +10°C° 0 mm 2 mps 558 mmHg 72%

Day after tomorrow, 9 May, Sunday

Time Temperature Precipitation Wind Pressure Humidity
00:00 +9°C° 0 mm 2 mps 558 mmHg 70%
01:00 +9°C° 0 mm 2 mps 558 mmHg 69%
02:00 +9°C° 0 mm 2 mps 557 mmHg 69%
03:00 +9°C° 0 mm 2 mps 557 mmHg 68%
04:00 +9°C° 0 mm 2 mps 557 mmHg 67%
05:00 +9°C° 0 mm 2 mps 557 mmHg 66%
06:00 +9°C° 0 mm 2 mps 557 mmHg 65%
07:00 +12°C° 0 mm 2 mps 559 mmHg 60%
08:00 +14°C° 0 mm 2 mps 560 mmHg 55%
09:00 +16°C° 0 mm 2 mps 561 mmHg 50%
10:00 +17°C° 0.2 mm 2 mps 561 mmHg 49%
11:00 +17°C° 0.2 mm 3 mps 561 mmHg 48%
12:00 +18°C° 0.2 mm 3 mps 561 mmHg 47%
13:00 +16°C° 1.3 mm 3 mps 560 mmHg 55%
14:00 +15°C° 1.3 mm 2 mps 559 mmHg 63%
15:00 +13°C° 1.3 mm 2 mps 558 mmHg 71%
16:00 +12°C° 2.9 mm 2 mps 557 mmHg 76%
17:00 +11°C° 2.9 mm 1 mps 557 mmHg 80%
18:00 +10°C° 2.9 mm 1 mps 557 mmHg 85%
19:00 +11°C° 0.1 mm 1 mps 557 mmHg 81%
20:00 +10°C° 0.1 mm 2 mps 557 mmHg 77%
21:00 +10°C° 0.1 mm 2 mps 557 mmHg 73%
22:00 +10°C° 0 mm 2 mps 557 mmHg 71%
23:00 +9°C° 0 mm 3 mps 556 mmHg 68%

10 May, Monday

Time Temperature Precipitation Wind Pressure Humidity
00:00 +9°C° 0 mm 3 mps 556 mmHg 65%
01:00 +9°C° 0 mm 3 mps 556 mmHg 64%
02:00 +9°C° 0 mm 3 mps 556 mmHg 64%
03:00 +9°C° 0 mm 2 mps 556 mmHg 63%
04:00 +9°C° 0 mm 2 mps 556 mmHg 63%
05:00 +9°C° 0 mm 2 mps 556 mmHg 63%
06:00 +9°C° 0 mm 2 mps 556 mmHg 63%
07:00 +12°C° 0 mm 2 mps 557 mmHg 59%
08:00 +13°C° 0 mm 2 mps 558 mmHg 56%
09:00 +15°C° 0 mm 2 mps 559 mmHg 52%
10:00 +16°C° 0.4 mm 2 mps 559 mmHg 52%
11:00 +16°C° 0.4 mm 2 mps 559 mmHg 52%
12:00 +17°C° 0.4 mm 3 mps 559 mmHg 52%
13:00 +16°C° 0.7 mm 2 mps 559 mmHg 56%
14:00 +16°C° 0.7 mm 2 mps 558 mmHg 60%
15:00 +15°C° 0.7 mm 1 mps 557 mmHg 64%
16:00 +14°C° 1.7 mm 1 mps 557 mmHg 69%
17:00 +13°C° 1.7 mm 1 mps 556 mmHg 73%
18:00 +12°C° 1.7 mm 1 mps 555 mmHg 77%
19:00 +12°C° 0.3 mm 2 mps 556 mmHg 77%
20:00 +10°C° 0.3 mm 2 mps 556 mmHg 76%
21:00 +10°C° 0.3 mm 2 mps 556 mmHg 75%
22:00 +10°C° 0 mm 2 mps 556 mmHg 73%
23:00 +10°C° 0 mm 3 mps 556 mmHg 71%

11 May, Tuesday

Time Temperature Precipitation Wind Pressure Humidity
00:00 +10°C° 0 mm 3 mps 556 mmHg 69%
01:00 +10°C° 0.1 mm 2 mps 556 mmHg 69%
02:00 +10°C° 0.1 mm 2 mps 555 mmHg 69%
03:00 +10°C° 0.1 mm 2 mps 555 mmHg 70%
04:00 +10°C° 0.1 mm 2 mps 555 mmHg 70%
05:00 +10°C° 0.1 mm 2 mps 555 mmHg 70%
06:00 +10°C° 0.1 mm 2 mps 556 mmHg 70%
07:00 +12°C° 0.1 mm 2 mps 557 mmHg 65%
08:00 +14°C° 0.1 mm 1 mps 558 mmHg 59%
09:00 +16°C° 0.1 mm 1 mps 559 mmHg 54%
10:00 +18°C° 0.1 mm 1 mps 559 mmHg 50%
11:00 +18°C° 0.1 mm 2 mps 560 mmHg 46%
12:00 +19°C° 0.1 mm 3 mps 560 mmHg 42%
13:00 +18°C° 0.6 mm 3 mps 559 mmHg 48%
14:00 +17°C° 0.6 mm 3 mps 558 mmHg 55%
15:00 +15°C° 0.6 mm 4 mps 557 mmHg 62%
16:00 +14°C° 1.2 mm 3 mps 557 mmHg 68%
17:00 +13°C° 1.2 mm 3 mps 556 mmHg 73%
18:00 +12°C° 1.2 mm 2 mps 555 mmHg 79%
19:00 +12°C° 0.1 mm 2 mps 555 mmHg 79%
20:00 +10°C° 0.1 mm 2 mps 555 mmHg 80%
21:00 +11°C° 0.1 mm 1 mps 555 mmHg 81%
22:00 +10°C° 0.1 mm 2 mps 555 mmHg 78%
23:00 +10°C° 0.1 mm 2 mps 555 mmHg 76%

12 May, Wednesday

Time Temperature Precipitation Wind Pressure Humidity
00:00 +10°C° 0.1 mm 3 mps 555 mmHg 73%
01:00 +10°C° 0.1 mm 2 mps 555 mmHg 73%
02:00 +10°C° 0.1 mm 2 mps 555 mmHg 72%
03:00 +11°C° 0.1 mm 1 mps 555 mmHg 72%
04:00 +11°C° 0 mm 1 mps 555 mmHg 73%
05:00 +11°C° 0 mm 1 mps 555 mmHg 73%
06:00 +11°C° 0 mm 1 mps 556 mmHg 74%
07:00 +12°C° 0.1 mm 1 mps 556 mmHg 69%
08:00 +13°C° 0.1 mm 1 mps 557 mmHg 64%
09:00 +14°C° 0.1 mm 1 mps 558 mmHg 59%
10:00 +16°C° 0.3 mm 2 mps 559 mmHg 57%
11:00 +17°C° 0.3 mm 2 mps 559 mmHg 55%
12:00 +18°C° 0.3 mm 3 mps 559 mmHg 53%
13:00 +17°C° 0.8 mm 3 mps 559 mmHg 56%
14:00 +17°C° 0.8 mm 3 mps 558 mmHg 58%
15:00 +16°C° 0.8 mm 2 mps 558 mmHg 61%
16:00 +15°C° 1.8 mm 2 mps 557 mmHg 68%
17:00 +14°C° 1.8 mm 2 mps 556 mmHg 75%
18:00 +13°C° 1.8 mm 2 mps 555 mmHg 82%
19:00 +12°C° 0 mm 2 mps 555 mmHg 80%
20:00 +12°C° 0 mm 1 mps 555 mmHg 78%
21:00 +11°C° 0 mm 1 mps 556 mmHg 76%
22:00 +10°C° 0 mm 2 mps 555 mmHg 75%
23:00 +9°C° 0 mm 2 mps 555 mmHg 73%
Show more

We Need Your Consent

Meteoprog and our Service Providers may store and access personal data such as cookies, device identifiers or other similar technologies on your device and process such data to personalise content and ads, as well as provide social media features and to analyse the traffic.

  • Store and/or access information on your device

    Cookies, device identifiers or other information can be stored or accessed on your device for the purposes indicated above.

  • Personalised ads and content, ad and content measurement, audience insights, and products development

    Ads and content can be personalised based on a profile. More data can be added to better personalise ads and content. Ad and content performance can be measured. Insights about the audience who saw the ads and content can be derived. Such data can be used to develop or improve user’s experience, systems and software.

By clicking ‘I Agree’ you will allow the use of indicated cookies, device identifiers, web beacons or other similar technologies. Your settings can be changed in the browser on your device.

For certain purposes, legitimate interests may be relied on, rather than consent. You can read more about this in our Privacy and Cookie Policy.